Flag for U.S.A. Weather past 2 weeks in Odessa, Texas, U.S.A.

Now
95 °F

Partly sunny.


Feels Like: 93 °F
Forecast: 72 / 94 °F
Wind: 8 mph from Southwest

Location: Odessa-Schlemeyer Field

Current Time: Aug 27, 2014 at 4:58:58 PM

Latest Report: Aug 27, 2014 at 3:53 PM


Visibility: 10 mi

Pressure: 29.90 "Hg

Humidity: 24%

Dew point: 53 °F

Location of OdessaLocation

Historic Weather in Odessa — Graph

°F

Odessa temperature yesterday

Maximum temperature yesterday: 95 °F (at 5:53 PM)
Minimum temperature yesterday: 75 °F (at 3:53 AM)
Average temperature yesterday: 85 °F

Past Weeks' High & Low Weather Summary

 TemperatureHumidityPressure
High97 °F (Aug 15, 3:53 PM)90% (Aug 18, 5:53 AM)30.08 "Hg (Aug 18, 5:53 AM)
Low69 °F (Aug 13, 6:53 AM)19% (Aug 14, 3:53 PM)29.69 "Hg (Aug 19, 6:53 PM)
Average82 °F48%29.88 "Hg
* Reported Aug 12 2:53 PM — Aug 27 2:53 PM, Odessa, Weather by CustomWeather, © 2014

Note: Actual official high and low records may vary slightly from our data, if they occured in-between our weather recording intervals... More about our weather records

Advertising

Odessa weather history for previous 24 hours

 ConditionsComfort  
Time TempWeatherWind HumidityBarometerVisibility
2:53 PM
Aug 27
93 °FSunny.7 mph27%29.93 "Hg10 mi
1:53 PM92 °FPassing clouds.12 mph30%29.96 "Hg10 mi
12:53 PM89 °FSunny.7 mph34%29.97 "Hg10 mi
11:53 AM87 °FSunny.5 mph43%29.99 "Hg10 mi
10:53 AM83 °FSunny.14 mph50%29.99 "Hg10 mi
9:53 AM81 °FSunny.13 mph53%29.99 "Hg10 mi
8:53 AM77 °FSunny.No wind47%29.98 "Hg10 mi
7:53 AM74 °FClear.No wind52%29.97 "Hg10 mi
6:53 AM72 °FClear.3 mph55%29.95 "Hg10 mi
5:53 AM73 °FClear.7 mph53%29.93 "Hg10 mi
4:53 AM75 °FClear.7 mph50%29.93 "Hg10 mi
3:53 AM77 °FClear.6 mph48%29.93 "Hg10 mi
2:53 AM79 °FClear.5 mph44%29.93 "Hg10 mi
1:53 AM81 °FClear.7 mph41%29.93 "Hg10 mi
12:53 AM84 °FClear.9 mph37%29.93 "Hg10 mi
11:53 PM
Aug 26
84 °FClear.10 mph37%29.93 "Hg10 mi
10:53 PM86 °FClear.9 mph35%29.93 "Hg10 mi
9:53 PM87 °FClear.9 mph31%29.91 "Hg10 mi
8:53 PM89 °FSunny.8 mph27%29.89 "Hg10 mi
7:53 PM92 °FSunny.12 mph25%29.87 "Hg10 mi
6:53 PM95 °FScattered clouds.17 mph23%29.86 "Hg10 mi
5:53 PM95 °FPassing clouds.8 mph23%29.86 "Hg10 mi
4:53 PM94 °FSunny.14 mph23%29.88 "Hg10 mi
Weather by CustomWeather, © 2014

See weather overviewHow to use our weather pages